Location: Unspecified
(17.6330°N, 0.0000°E)
Time: 12:01:43
(UTC+00:00)

Courier 1B Rocket - Pass Details

Date: 04 July 2019
Orbit: 920 x 1202 km, 28.2° (Epoch: 19 July)

Event Time Altitude Azimuth Distance (km) Brightness Sun altitude
Exits shadow 01:09:34 24° 45° (NE) 2,181 7.1 -46.4°
Drops below altitude 10° 01:12:45 10° 63° (ENE) 3,020 7.9 -46.1°
Sets 01:15:44 0° 71° (ENE) 3,940 8.6 -45.9°
